Weather History for KCEC - March, 2013

Change the Weather History Date:

Sunday, March 17, 2013

  Actual Average Record
Temperature  
Mean Temperature 46 °F 48 °F  
Max Temperature 53 °F 55 °F 74 °F (1978)
Min Temperature 39 °F 42 °F 30 °F (1963)
Degree Days  
Heating Degree Days 19 16  
Month to date heating degree days 300 286  
Since 1 July heating degree days 3533 3459  
Cooling Degree Days 0 0  
Month to date cooling degree days 0 0  
Year to date cooling degree days 0 0  
Moisture  
Dew Point 40 °F    
Average Humidity 76    
Maximum Humidity 89    
Minimum Humidity 63    
Precipitation  
Precipitation 0.00 in 0.24 in 2.39 in (1950)
Month to date precipitation 3.07 4.00  
Year to date precipitation 11.54 23.27  
Since 1 July precipitation 45.24  
Snow  
Snow 0.00 in - - ()
Month to date snowfall 0.0  
Since 1 July snowfall 0.0  
Snow Depth 0.00 in    
Sea Level Pressure  
Sea Level Pressure 30.28 in    
Wind  
Wind Speed 11 mph (NNW)    
Max Wind Speed 23 mph    
Max Gust Speed 32 mph    
Visibility 10 miles    
Events      
T = Trace of Precipitation, MM = Missing Value Source: NWS Daily Summary

Daily Weather History Graph

Daily Weather History Graph

Search for Another Location

Airport or City:

Trip Planner

Search our weather history database for the weather conditions in past years. The results will help you decide how hot, cold, wet, or windy it might be!

Date:

Astronomy

Mar. 17, 2013 Rise Set
Actual Time 7:24 AM PDT 7:26 PM PDT
Civil Twilight 6:57 AM PDT 7:53 PM PDT
Nautical Twilight 6:24 AM PDT 8:26 PM PDT
Astronomical Twilight 5:51 AM PDT 8:59 PM PDT
Moon 10:37 AM PDT (3/17) 12:43 AM PDT (3/17)
Length of Visible Light 12h 56m
Length of Day
12h 01m
Waxing Crescent, 32% of the Moon is Illuminated
Mar 17
Waxing Crescent
Mar 19
First Quarter
Mar 27
Full
Apr 2
Last Quarter
Apr 10
New

Hourly Weather History & Observations

Time (PDT) Temp. Windchill Dew Point Humidity Pressure Visibility Wind Dir Wind Speed Gust Speed Precip Events Conditions
12:51 AM 48.2 °F - 42.8 °F 82% 30.27 in 10.0 mi NNW 5.8 mph - N/A   Overcast
12:56 AM 48.0 °F - 43.0 °F 83% 30.28 in 10.0 mi NW 6.9 mph - N/A   Overcast
1:26 AM 46.4 °F 43.5 °F 42.8 °F 87% 30.27 in 10.0 mi NNW 5.8 mph - N/A   Scattered Clouds
1:56 AM 46.9 °F - 43.0 °F 86% 30.28 in 10.0 mi NW 8.1 mph - 0.01 in   Mostly Cloudy
2:09 AM 46.4 °F 41.9 °F 42.8 °F 87% 30.27 in 10.0 mi NNW 9.2 mph - N/A   Mostly Cloudy
2:41 AM 46.4 °F 40.7 °F 42.8 °F 87% 30.28 in 10.0 mi NNW 12.7 mph 19.6 mph N/A   Partly Cloudy
2:56 AM 46.0 °F 39.9 °F 42.1 °F 86% 30.29 in 10.0 mi NNW 13.8 mph - N/A   Clear
3:26 AM 44.6 °F 38.1 °F 42.8 °F 93% 30.28 in 10.0 mi NNW 13.8 mph - N/A   Mostly Cloudy
3:56 AM 45.0 °F 37.4 °F 41.0 °F 86% 30.28 in 10.0 mi NNW 18.4 mph 24.2 mph N/A   Partly Cloudy
4:56 AM 45.0 °F 39.7 °F 39.9 °F 82% 30.30 in 10.0 mi North 10.4 mph - N/A   Clear
5:56 AM 44.1 °F 40.1 °F 39.0 °F 82% 30.30 in 10.0 mi NNE 6.9 mph - N/A   Partly Cloudy
6:56 AM 42.1 °F 37.7 °F 37.9 °F 85% 30.31 in 10.0 mi North 6.9 mph - N/A   Clear
7:56 AM 42.1 °F 38.4 °F 37.9 °F 85% 30.32 in 10.0 mi North 5.8 mph - N/A   Clear
8:56 AM 46.0 °F 41.9 °F 39.0 °F 76% 30.32 in 10.0 mi North 8.1 mph - N/A   Clear
9:56 AM 46.9 °F - 39.9 °F 77% 30.30 in 10.0 mi North 8.1 mph - N/A   Clear
10:56 AM 48.9 °F - 39.9 °F 71% 30.29 in 10.0 mi NNW 10.4 mph - N/A   Clear
11:56 AM 51.1 °F - 41.0 °F 68% 30.30 in 10.0 mi NW 12.7 mph - N/A   Clear
12:56 PM 52.0 °F - 39.9 °F 63% 30.29 in 10.0 mi NW 16.1 mph - N/A   Clear
1:56 PM 52.0 °F - 39.9 °F 63% 30.27 in 10.0 mi NW 16.1 mph - N/A   Clear
2:56 PM 52.0 °F - 41.0 °F 66% 30.27 in 10.0 mi NW 15.0 mph 23.0 mph N/A   Clear
3:56 PM 51.1 °F - 39.9 °F 66% 30.26 in 10.0 mi NNW 17.3 mph 23.0 mph N/A   Clear
4:56 PM 50.0 °F - 39.0 °F 66% 30.26 in 10.0 mi NNW 16.1 mph 23.0 mph N/A   Clear
5:56 PM 48.9 °F - 37.9 °F 66% 30.27 in 10.0 mi NW 17.3 mph 26.5 mph N/A   Clear
6:56 PM 46.9 °F - 37.9 °F 71% 30.26 in 10.0 mi NNW 17.3 mph 26.5 mph N/A   Clear
7:56 PM 46.0 °F 38.3 °F 37.9 °F 73% 30.24 in 10.0 mi NNW 20.7 mph 31.1 mph N/A   Clear
8:56 PM 46.0 °F 40.2 °F 37.9 °F 73% 30.22 in 10.0 mi NNW 12.7 mph 20.7 mph N/A   Clear
9:56 PM 44.1 °F - 37.9 °F 79% 30.23 in 10.0 mi Calm Calm - N/A   Partly Cloudy
10:56 PM 41.0 °F 37.1 °F 37.0 °F 86% 30.24 in 10.0 mi NE 5.8 mph - N/A   Clear
11:56 PM 41.0 °F 39.0 °F 37.0 °F 86% 30.24 in 10.0 mi East 3.5 mph - N/A   Clear